Tracking 27122 objects as of 24-Mar-2023
HD Live streaming from Space Station
objects crossing your sky now

COSMOS 1275 DEB

Track COSMOS 1275 DEB now!
10-day predictions


NORAD ID: 17615
Int'l Code: 1981-053KM
Perigee: 842.1 km
Apogee: 905.9 km
Inclination: 82.9 °
Period: 102.3 minutes
Semi major axis: 7245 km
RCS: 0.0146 m2 (small)
Launch date: June 4, 1981
Source: Commonwealth of Independent States (former USSR) (CIS)
Launch site: PLESETSK MISSILE AND SPACE COMPLEX (PKMTR)

Note: This is SATELLITE DEBRIS
Your satellite tracking list
Your tracking list is empty




NASA's NSSDC Master Catalog

Two Line Element Set (TLE):
1 17615U 81053KJ  23082.15225032  .00002936  00000-0  17098-2 0  9999
2 17615  82.8607 332.5356 0044022 267.9094 244.7172 14.07803576926307
Source of the keplerian elements: AFSPC